Location: Newark
(47.5833°N, 8.1500°E)
Time: 06:02:45
(UTC+00:00)

Tiros 1 despin weight - Pass Details

Date: 30 October 2020
Orbit: 593 x 642 km, 48.2° (Epoch: 30 November)

Event Time Altitude Azimuth Distance (km) Brightness Sun altitude
Exits shadow 04:10:17 48° 228° (SW) 783 ? -20.4°
Maximum altitude 04:10:44 50° 206° (SSW) 758 ? -20.4°
Drops below altitude 10° 04:15:00 10° 130° (SE) 1,919 ? -19.6°
Sets 04:17:19 0° 126° (SE) 2,820 ? -19.3°
